EW0415 Weather Reports


time (UTC)temp
F
wind
direction
speed
knots
gust
knots
rain 1hr
in
rain 24hr
in
rain mn
in
humidity
%
barometer
mb
20260902001019 58 279 1.7 7.0 0.00 0.14 0.01 80 1019.1
20260902000520 57 282 2.6 7.0 0.00 0.14 0.01 81 1018.9
20260902000033 57 289 1.7 4.3 0.00 0.14 0.01 83 1019.1
20260901235518 56 287 1.7 6.1 0.00 0.14 0.01 84 1019.0
20260901235015 56 291 0.9 6.1 0.00 0.14 0.01 84 1019.1
20260901234533 55 289 0.9 7.8 0.00 0.14 0.01 85 1019.1
20260901234016 55 0 0.9 7.8 0.00 0.14 0.01 85 1019.1
20260901233518 55 298 1.7 7.8 0.00 0.14 0.01 86 1019.1
20260901233039 55 291 1.7 6.1 0.00 0.14 0.01 87 1019.1
20260901232519 55 271 0.9 6.1 0.00 0.14 0.01 87 1019.3
20260901232019 55 277 1.7 6.1 0.00 0.14 0.01 87 1019.4
20260901231536 54 280 1.7 6.1 0.00 0.14 0.01 87 1019.4
20260901231019 54 284 1.7 6.1 0.00 0.14 0.01 88 1019.3
20260901230517 54 277 1.7 4.3 0.00 0.14 0.01 88 1019.7
20260901230033 54 289 1.7 4.3 0.00 0.14 0.01 88 1019.6
20260901225517 54 294 1.7 3.5 0.00 0.14 0.01 88 1019.6
20260901225017 54 296 0.0 2.6 0.00 0.14 0.01 88 1019.6
20260901224537 54 0 0.0 2.6 0.00 0.14 0.01 88 1019.7
20260901224018 54 296 0.0 2.6 0.00 0.14 0.01 88 1019.6
20260901223517 54 0 0.0 1.7 0.00 0.14 0.01 88 1019.6
20260901223032 54 296 0.0 1.7 0.00 0.14 0.01 88 1019.4
20260901222518 54 0 0.0 0.9 0.00 0.14 0.01 88 1019.3
20260901222018 54 0 0.0 0.0 0.00 0.14 0.01 88 1019.3
20260901221534 54 0 0.0 0.0 0.00 0.14 0.01 88 1019.3
20260901221019 54 0 0.0 0.0 0.00 0.14 0.01 88 1019.2
20260901220518 53 0 0.0 0.0 0.00 0.14 0.01 88 1019.2
20260901220033 53 0 0.0 0.0 0.00 0.14 0.01 88 1019.2
20260901215516 53 0 0.0 0.0 0.00 0.14 0.01 88 1019.2
20260901215016 53 0 0.0 0.0 0.00 0.14 0.01 88 1019.1
20260901214543 53 0 0.0 0.0 0.00 0.14 0.01 88 1019.2
20260901214017 53 0 0.0 0.0 0.00 0.14 0.01 88 1019.1
20260901213519 53 0 0.0 0.0 0.00 0.14 0.01 88 1019.1
20260901213034 53 0 0.0 0.0 0.00 0.14 0.01 88 1018.9
20260901212516 53 0 0.0 0.0 0.00 0.14 0.01 87 1018.9
20260901212016 53 0 0.0 0.0 0.00 0.14 0.01 87 1018.9
20260901211534 53 0 0.0 0.0 0.00 0.14 0.01 87 1018.8
20260901211017 53 0 0.0 0.0 0.00 0.14 0.01 87 1018.9
20260901210518 53 0 0.0 0.0 0.00 0.14 0.01 87 1018.8
20260901210031 53 0 0.0 0.0 0.00 0.14 0.01 87 1018.6
20260901205516 53 0 0.0 0.0 0.00 0.14 0.01 87 1018.5
20260901205016 53 0 0.0 0.0 0.00 0.14 0.01 87 1018.5
20260901204535 53 0 0.0 0.0 0.00 0.14 0.01 87 1018.4
20260901204023 54 0 0.0 0.0 0.00 0.14 0.01 87 1018.4
20260901203520 54 0 0.0 0.0 0.00 0.14 0.01 87 1018.3
20260901203034 54 0 0.0 0.0 0.00 0.14 0.01 87 1018.3
20260901202516 54 0 0.0 0.0 0.00 0.13 0.00 87 1018.3
20260901202016 54 0 0.0 0.0 0.00 0.13 0.00 87 1018.1
20260901201533 54 0 0.0 0.0 0.00 0.13 0.00 87 1018.3
20260901201019 54 0 0.0 0.0 0.00 0.13 0.00 87 1018.3
20260901200516 54 0 0.0 0.0 0.00 0.13 0.00 87 1018.2
20260901200041 54 0 0.0 0.0 0.00 0.13 0.00 87 1018.2
20260901195518 54 0 0.0 0.0 0.00 0.13 0.00 87 1018.0
20260901195022 54 0 0.0 0.0 0.00 0.13 0.00 87 1018.1
20260901194541 54 0 0.0 0.0 0.00 0.13 0.00 87 1018.0
20260901194020 54 0 0.0 0.0 0.00 0.13 0.00 87 1017.9
20260901193519 55 0 0.0 0.0 0.00 0.13 0.00 87 1017.9
20260901193035 55 0 0.0 0.0 0.00 0.13 0.00 87 1017.9
20260901192519 55 0 0.0 0.0 0.00 0.13 0.00 87 1017.9
20260901192016 54 0 0.0 0.0 0.00 0.13 0.00 87 1018.1
20260901191540 54 0 0.0 0.0 0.00 0.13 0.00 87 1017.8
20260901191016 54 0 0.0 0.0 0.00 0.13 0.00 87 1018.0
20260901190516 54 0 0.0 0.0 0.00 0.13 0.00 87 1017.9
20260901190042 54 0 0.0 0.0 0.00 0.13 0.00 87 1018.0
20260901185519 54 0 0.0 0.0 0.00 0.13 0.00 87 1018.0
20260901185015 54 0 0.0 0.0 0.00 0.13 0.00 87 1018.0
20260901184535 54 0 0.0 0.0 0.00 0.12 0.00 86 1018.0
20260901184021 54 0 0.0 0.0 0.00 0.12 0.00 86 1017.8
20260901183519 54 0 0.0 0.0 0.00 0.12 0.00 86 1017.9
20260901183034 54 0 0.0 0.0 0.00 0.12 0.00 86 1017.7
20260901182520 54 0 0.0 0.0 0.00 0.12 0.00 86 1017.8
20260901182019 54 0 0.0 0.0 0.00 0.12 0.00 86 1017.8
20260901181533 54 0 0.0 0.0 0.00 0.12 0.00 86 1017.7
20260901181016 53 0 0.0 0.0 0.00 0.12 0.00 86 1017.7
20260901180516 53 0 0.0 0.0 0.00 0.12 0.00 85 1017.5
20260901180034 53 0 0.0 0.0 0.00 0.12 0.00 86 1017.5
20260901175520 53 0 0.0 0.0 0.00 0.12 0.00 85 1017.6
20260901175017 53 0 0.0 0.0 0.00 0.12 0.00 85 1017.6
20260901174540 53 0 0.0 0.0 0.00 0.12 0.00 85 1017.7
20260901174026 53 0 0.0 0.0 0.00 0.12 0.00 85 1017.7
20260901173519 53 0 0.0 0.0 0.00 0.12 0.00 85 1017.7
20260901173034 54 0 0.0 0.0 0.00 0.12 0.00 85 1017.7
20260901172515 54 0 0.0 0.0 0.00 0.12 0.00 85 1017.9
20260901172020 54 0 0.0 0.0 0.00 0.12 0.00 85 1017.9
20260901171542 54 0 0.0 0.0 0.00 0.12 0.00 85 1017.8
20260901171019 54 0 0.0 0.0 0.00 0.12 0.00 85 1017.9
20260901170525 54 0 0.0 0.0 0.00 0.12 0.00 85 1018.1
20260901170035 55 0 0.0 0.0 0.00 0.12 0.00 85 1018.1
20260901165520 55 0 0.0 0.0 0.00 0.12 0.00 85 1017.9
20260901165020 55 0 0.0 0.0 0.00 0.12 0.00 85 1018.0
20260901164533 55 0 0.0 0.0 0.00 0.12 0.00 85 1018.1
20260901164020 55 0 0.0 0.0 0.00 0.12 0.00 85 1018.0
20260901163520 55 0 0.0 0.0 0.00 0.12 0.00 85 1018.1
20260901163035 55 0 0.0 0.0 0.00 0.12 0.00 85 1018.1
20260901162519 55 0 0.0 0.0 0.00 0.12 0.00 85 1018.2
20260901162016 55 0 0.0 0.0 0.00 0.12 0.00 85 1018.1
20260901161540 55 0 0.0 0.0 0.00 0.12 0.00 85 1018.1
20260901161019 55 0 0.0 0.0 0.00 0.12 0.00 85 1018.1
20260901160517 55 0 0.0 0.0 0.00 0.12 0.00 85 1018.1
20260901160035 55 0 0.0 0.0 0.00 0.12 0.00 85 1018.2
20260901155519 55 0 0.0 0.0 0.00 0.12 0.00 85 1018.0
20260901155016 55 0 0.0 0.0 0.00 0.12 0.00 85 1018.1
20260901154535 56 0 0.0 0.0 0.00 0.12 0.00 85 1018.2
20260901154018 56 0 0.0 0.0 0.00 0.12 0.00 85 1018.1
20260901153519 56 0 0.0 0.0 0.00 0.12 0.00 85 1018.1
20260901153034 56 0 0.0 0.0 0.00 0.12 0.00 85 1018.0
20260901152515 56 0 0.0 0.0 0.00 0.12 0.00 85 1017.9
20260901152023 57 0 0.0 0.0 0.00 0.12 0.00 85 1018.0
20260901151540 57 0 0.0 0.0 0.00 0.12 0.00 85 1018.0
20260901151020 57 0 0.0 0.0 0.00 0.12 0.00 85 1018.0
20260901150519 57 0 0.0 0.0 0.00 0.12 0.00 85 1018.1
20260901150038 57 0 0.0 0.0 0.00 0.12 0.00 85 1018.1
20260901145516 57 0 0.0 0.0 0.00 0.12 0.00 85 1018.2
20260901145016 58 0 0.0 0.0 0.00 0.12 0.00 85 1018.1
20260901144534 58 0 0.0 0.0 0.00 0.12 0.00 85 1018.0
20260901144016 58 0 0.0 0.0 0.00 0.12 0.00 85 1018.0
20260901143521 58 0 0.0 0.0 0.00 0.12 0.00 85 1017.9
20260901143037 58 0 0.0 0.0 0.00 0.12 0.00 85 1017.9
20260901142519 58 0 0.0 0.0 0.00 0.12 0.12 85 1017.9
20260901142016 58 0 0.0 0.0 0.00 0.12 0.12 85 1017.9
20260901141534 59 0 0.0 0.0 0.00 0.12 0.12 85 1018.0
20260901141016 59 0 0.0 1.7 0.00 0.12 0.12 85 1018.0
20260901140519 59 0 0.0 1.7 0.00 0.12 0.12 85 1018.0
20260901140104 59 0 0.0 2.6 0.00 0.12 0.12 85 1018.0
20260901135520 59 0 0.0 2.6 0.00 0.12 0.12 85 1018.1
20260901135019 59 296 0.0 2.6 0.00 0.12 0.12 85 1018.0
20260901134538 59 0 0.0 2.6 0.00 0.12 0.12 85 1018.0
20260901134018 59 296 0.0 1.7 0.00 0.12 0.12 84 1018.1
20260901133516 59 0 0.0 0.0 0.00 0.12 0.12 84 1018.1
20260901133036 59 0 0.0 0.0 0.00 0.12 0.12 84 1018.2
20260901132521 59 0 0.0 0.9 0.00 0.12 0.12 84 1018.3
20260901132018 58 0 0.0 0.9 0.00 0.12 0.12 84 1018.2
20260901131537 58 0 0.0 0.9 0.00 0.12 0.12 84 1018.2
20260901131018 58 296 0.0 0.9 0.00 0.12 0.12 84 1018.2
20260901130526 58 0 0.0 0.0 0.00 0.12 0.12 84 1018.2
20260901130036 58 0 0.0 0.0 0.00 0.12 0.12 84 1018.3
20260901125520 58 0 0.0 0.0 0.00 0.12 0.12 83 1018.3
20260901125019 58 0 0.0 0.0 0.00 0.12 0.12 84 1018.4
20260901124535 59 0 0.0 0.0 0.00 0.12 0.12 84 1018.4
20260901124019 59 0 0.0 0.0 0.00 0.12 0.12 84 1018.4
20260901123520 59 0 0.0 0.0 0.00 0.12 0.12 84 1018.4
20260901123035 59 0 0.0 0.0 0.00 0.12 0.12 84 1018.5
20260901122516 59 0 0.0 0.0 0.00 0.12 0.12 84 1018.4
20260901122016 59 0 0.0 0.0 0.00 0.12 0.12 84 1018.4
20260901121553 59 0 0.0 0.0 0.00 0.12 0.12 84 1018.4
20260901121015 59 0 0.0 0.0 0.00 0.12 0.12 84 1018.4
20260901120521 59 0 0.0 0.0 0.00 0.12 0.12 84 1018.5
20260901120035 59 0 0.0 0.0 0.00 0.12 0.12 84 1018.6
20260901115523 59 0 0.0 0.0 0.00 0.12 0.12 84 1018.4
20260901115020 59 0 0.0 0.0 0.00 0.12 0.12 84 1018.5
20260901114534 59 0 0.0 0.0 0.00 0.12 0.12 84 1018.4
20260901114016 60 0 0.0 0.0 0.00 0.12 0.12 84 1018.3
20260901113516 60 0 0.0 0.0 0.00 0.12 0.12 84 1018.2
20260901113038 60 0 0.0 0.0 0.00 0.12 0.12 84 1018.0
20260901112519 60 0 0.0 0.9 0.00 0.12 0.12 84 1018.0
20260901112016 60 0 0.0 0.9 0.00 0.12 0.12 84 1018.0
20260901111535 60 0 0.0 0.9 0.00 0.12 0.12 84 1018.0
20260901111021 60 0 0.0 0.0 0.00 0.12 0.12 84 1018.0
20260901110518 60 0 0.0 1.7 0.00 0.12 0.12 84 1017.9
20260901110037 60 0 0.0 1.7 0.00 0.12 0.12 84 1017.9
20260901105515 60 0 0.0 3.5 0.00 0.12 0.12 84 1018.0
20260901105018 60 296 0.0 3.5 0.00 0.12 0.12 84 1017.9
20260901104538 60 296 0.9 3.5 0.00 0.12 0.12 84 1017.9
20260901104017 60 296 0.9 3.5 0.00 0.12 0.12 84 1018.0
20260901103518 59 297 0.0 3.5 0.00 0.12 0.12 84 1017.9
20260901103032 59 297 0.9 3.5 0.00 0.12 0.12 84 1017.9
20260901102516 59 306 0.9 3.5 0.00 0.12 0.12 84 1017.8
20260901102018 59 0 0.0 4.3 0.00 0.12 0.12 84 1017.8
20260901101535 59 311 0.9 7.8 0.00 0.12 0.12 84 1017.7
20260901101020 59 315 0.9 7.8 0.00 0.12 0.12 84 1017.7
20260901100516 59 0 0.0 0.9 0.00 0.12 0.12 84 1017.6
20260901100038 59 0 0.0 1.7 0.00 0.12 0.12 84 1017.5
20260901095516 59 0 0.0 2.6 0.00 0.12 0.12 84 1017.4
20260901095016 59 0 0.0 2.6 0.00 0.12 0.12 84 1017.4
20260901094534 59 34 0.9 2.6 0.00 0.12 0.12 83 1017.2
20260901094018 59 34 0.0 2.6 0.00 0.12 0.12 83 1017.1
20260901093517 59 0 0.0 2.6 0.00 0.12 0.12 83 1016.9
20260901093035 59 0 0.9 3.5 0.00 0.12 0.12 83 1016.8
20260901092522 59 35 0.0 3.5 0.00 0.12 0.12 83 1016.6
20260901092019 59 0 0.0 3.5 0.00 0.12 0.12 83 1016.3
20260901091535 59 38 0.9 3.5 0.00 0.12 0.12 83 1016.4
20260901091015 59 0 0.0 3.5 0.00 0.12 0.12 83 1016.2
20260901090522 59 38 0.0 3.5 0.00 0.12 0.12 83 1016.0
20260901090039 59 37 0.0 7.0 0.00 0.12 0.12 83 1016.1
20260901085515 59 37 0.9 7.0 0.00 0.12 0.12 83 1016.2
20260901085018 59 40 0.9 7.0 0.00 0.12 0.12 83 1016.1
20260901084533 59 67 0.9 4.3 0.00 0.12 0.12 82 1016.1
20260901084017 60 0 0.0 3.5 0.00 0.12 0.12 82 1016.1
20260901083517 60 76 0.9 3.5 0.00 0.12 0.12 82 1016.0
20260901083037 60 0 0.0 2.6 0.00 0.12 0.12 82 1016.0
20260901082517 60 76 0.9 3.5 0.00 0.12 0.12 82 1016.0
20260901082020 60 76 0.0 3.5 0.00 0.12 0.12 81 1016.1
20260901081533 60 76 0.9 3.5 0.00 0.12 0.12 81 1016.1
20260901081016 60 0 0.9 2.6 0.00 0.12 0.12 81 1016.2
20260901080518 60 77 0.9 2.6 0.00 0.12 0.12 81 1016.3
20260901080032 60 0 0.0 2.6 0.01 0.12 0.12 80 1016.2
20260901075516 60 0 0.9 2.6 0.02 0.12 0.12 80 1016.3
20260901075016 60 81 0.0 1.7 0.02 0.12 0.12 79 1016.4
20260901074535 60 0 0.0 6.1 0.03 0.12 0.12 79 1016.8
20260901074018 60 0 0.0 6.1 0.04 0.12 0.12 79 1016.1
20260901073519 60 57 1.7 5.2 0.05 0.12 0.12 78 1015.4
20260901073045 61 46 0.9 5.2 0.07 0.12 0.12 77 1015.8
20260901072519 61 57 1.7 6.1 0.09 0.12 0.12 76 1015.9
20260901072019 61 45 2.6 6.1 0.10 0.12 0.12 75 1015.9
20260901071534 61 73 1.7 4.3 0.11 0.12 0.12 74 1015.8
20260901071018 62 34 1.7 4.3 0.12 0.12 0.12 74 1016.4
20260901070515 62 119 0.9 3.5 0.11 0.11 0.11 73 1016.8
20260901070040 63 145 0.0 3.5 0.11 0.11 0.11 72 1017.2
20260901065519 63 242 0.9 3.5 0.10 0.10 0.10 71 1017.2
20260901065019 63 242 0.9 2.6 0.10 0.10 0.10 71 1017.4
20260901064542 64 0 0.0 1.7 0.08 0.08 0.08 70 1017.9
20260901064019 64 244 0.0 1.7 0.07 0.07 0.07 70 1017.9
20260901063518 64 0 0.0 0.9 0.06 0.06 0.06 69 1018.1
20260901063037 65 0 0.0 2.6 0.04 0.04 0.04 69 1018.3
20260901062519 65 0 0.0 2.6 0.03 0.03 0.03 69 1018.3
20260901062021 65 242 0.0 6.1 0.01 0.01 0.01 68 1018.1
20260901061536 66 242 0.9 6.1 0.00 0.00 0.00 67 1018.0
20260901061021 66 192 0.9 8.7 0.00 0.00 0.00 66 1018.1
20260901060521 67 198 1.7 8.7 0.00 0.00 0.00 65 1018.0
20260901060036 68 252 3.5 10.4 0.00 0.00 0.00 64 1018.1
20260901055516 68 261 3.5 10.4 0.00 0.00 0.00 62 1017.9
20260901055020 69 225 5.2 11.3 0.00 0.00 0.00 58 1017.7
20260901054537 69 296 5.2 11.3 0.00 0.00 0.00 57 1017.5
20260901054021 69 280 3.5 11.3 0.00 0.00 0.00 56 1017.4
20260901053515 70 262 1.7 5.2 0.00 0.00 0.00 56 1017.0
20260901053035 70 267 1.7 5.2 0.00 0.00 0.00 56 1017.0
20260901052515 70 286 0.9 4.3 0.00 0.00 0.00 55 1016.8
20260901052017 70 288 0.9 4.3 0.00 0.00 0.00 55 1016.8
20260901051537 70 0 1.7 5.2 0.00 0.00 0.00 55 1016.7
20260901051021 70 294 1.7 6.1 0.00 0.00 0.00 56 1016.7
20260901050520 70 289 1.7 7.0 0.00 0.00 0.00 55 1016.7
20260901050038 70 311 0.9 7.0 0.00 0.00 0.00 56 1016.7
20260901045520 70 288 1.7 4.3 0.00 0.00 0.00 57 1016.7
20260901045018 70 0 0.0 3.5 0.00 0.00 0.00 58 1016.6
20260901044544 70 0 0.9 7.8 0.00 0.00 0.00 57 1016.6
20260901044019 70 291 0.9 7.8 0.00 0.00 0.00 56 1016.8
20260901043517 70 291 2.6 7.8 0.00 0.00 0.00 55 1016.7
20260901043035 70 313 0.0 4.3 0.00 0.00 0.00 55 1016.6
20260901042520 70 0 0.9 5.2 0.00 0.00 0.00 54 1016.7
20260901042016 70 317 0.9 7.0 0.00 0.00 0.00 54 1016.6
20260901041536 70 314 2.6 7.8 0.00 0.00 0.00 54 1016.7
20260901041020 70 305 2.6 7.8 0.00 0.00 0.00 53 1016.6
20260901040519 70 328 2.6 7.0 0.00 0.00 0.00 53 1016.6
20260901040037 71 0 1.7 7.0 0.00 0.00 0.00 53 1016.8
20260901035519 71 321 1.7 11.3 0.00 0.00 0.00 53 1016.8
20260901035018 71 324 2.6 11.3 0.00 0.00 0.00 53 1017.0
20260901034534 71 337 2.6 11.3 0.00 0.00 0.00 52 1016.9
20260901034016 71 304 1.7 8.7 0.00 0.00 0.00 52 1016.9
20260901033518 71 336 1.7 8.7 0.00 0.00 0.00 52 1017.1
20260901033036 71 345 3.5 8.7 0.00 0.00 0.00 51 1017.1
20260901032518 71 329 1.7 9.6 0.00 0.00 0.00 52 1017.2
20260901032018 71 15 1.7 9.6 0.00 0.00 0.00 51 1017.3
20260901031535 71 63 3.5 12.2 0.00 0.00 0.00 50 1017.8
20260901031016 72 335 2.6 12.2 0.00 0.00 0.00 49 1017.6
20260901030518 72 311 1.7 8.7 0.00 0.00 0.00 49 1018.0
20260901030042 73 303 2.6 8.7 0.00 0.00 0.00 49 1018.0
20260901025518 73 10 3.5 9.6 0.00 0.00 0.00 49 1017.9
20260901025016 72 298 2.6 10.4 0.00 0.00 0.00 50 1017.9
20260901024537 72 24 3.5 10.4 0.00 0.00 0.00 49 1017.9
20260901024020 71 346 4.3 8.7 0.00 0.00 0.00 50 1017.9
20260901023518 71 15 3.5 8.7 0.00 0.00 0.00 50 1018.0
20260901023037 70 94 2.6 7.8 0.00 0.00 0.00 51 1018.0
20260901022515 69 345 2.6 7.8 0.00 0.00 0.00 53 1018.4
20260901022020 69 296 2.6 7.8 0.00 0.00 0.00 53 1018.5
20260901021531 68 332 2.6 7.0 0.00 0.00 0.00 54 1018.7
20260901021019 68 316 1.7 7.0 0.00 0.00 0.00 54 1018.7
20260901020517 67 327 1.7 7.0 0.00 0.00 0.00 54 1018.7
20260901020035 67 333 1.7 5.2 0.00 0.00 0.00 55 1018.9
20260901015518 67 306 1.7 7.0 0.00 0.00 0.00 55 1018.8
20260901015018 67 323 2.6 10.4 0.00 0.00 0.00 55 1018.9
20260901014539 67 0 1.7 10.4 0.00 0.00 0.00 55 1018.8
20260901014015 67 341 1.7 10.4 0.00 0.00 0.00 56 1018.8
20260901013515 67 334 2.6 8.7 0.00 0.00 0.00 56 1018.6
20260901013036 67 11 2.6 9.6 0.00 0.00 0.00 56 1018.6
20260901012526 67 12 3.5 9.6 0.00 0.00 0.00 56 1019.0
20260901012023 67 28 2.6 9.6 0.00 0.00 0.00 57 1019.3
20260901011534 67 338 1.7 9.6 0.00 0.00 0.00 54 1019.3
20260901011017 67 330 1.7 7.0 0.00 0.00 0.00 54 1019.3
20260901010516 67 331 2.6 9.6 0.00 0.00 0.00 53 1019.3
20260901010035 67 97 3.5 9.6 0.00 0.00 0.00 54 1019.2
20260901005520 67 319 2.6 10.4 0.00 0.00 0.00 53 1019.4
20260901005019 67 333 1.7 10.4 0.00 0.00 0.00 53 1019.4
20260901004540 67 321 1.7 10.4 0.00 0.00 0.00 53 1019.4
20260901004018 67 294 2.6 10.4 0.00 0.00 0.00 53 1019.4
20260901003516 68 324 3.5 9.6 0.00 0.00 0.00 52 1019.5
20260901003038 68 332 3.5 9.6 0.00 0.00 0.00 51 1019.4
20260901002515 68 68 2.6 7.8 0.00 0.00 0.00 52 1019.4
20260901002015 68 360 1.7 10.4 0.00 0.00 0.00 53 1019.4
20260901001533 68 323 1.7 10.4 0.00 0.00 0.00 52 1019.4